Epoch = 1992 Jan. 19.0 ET T = 1992 Jan. 25.4417 ET Peri. = 263.1948 e = 0.593637 Node = 129.7432 1950.0 q = 2.356269 AU Incl. = 5.0821 a = 5.798435 AU n = 0.0705891 P = 13.963 years
A核: m1 = 10.0 + 5 logΔ + 12.0 log r B核: m1 = 12.5 + 5 logΔ + 12.0 log r